| time (UTC) | temp F | wind direction | speed MPH | gust MPH | rain 1hr in | rain 24hr in | rain mn in | humidity % | barometer mb |
| 20260903195026 | 91 | 269 | 1.0 | 4.0 | 0.00 | 2.45 | 1.88 | 60 | 1012.9 |
| 20260903194508 | 91 | 113 | 1.0 | 4.0 | 0.00 | 2.45 | 1.88 | 61 | 1013.0 |
| 20260903193451 | 90 | 78 | 0.0 | 4.0 | 0.00 | 2.45 | 1.88 | 63 | 1013.1 |
| 20260903193004 | 90 | 84 | 2.0 | 4.0 | 0.00 | 2.45 | 1.88 | 64 | 1013.2 |
| 20260903192513 | 90 | 103 | 1.0 | 4.0 | 0.00 | 2.45 | 1.88 | 66 | 1013.2 |
| 20260903190946 | 89 | 115 | 2.0 | 5.0 | 0.00 | 2.45 | 1.88 | 65 | 1013.4 |
| 20260903185947 | 91 | 99 | 0.0 | 5.0 | 0.00 | 2.45 | 1.88 | 65 | 1013.6 |
| 20260903184943 | 90 | 87 | 1.0 | 4.0 | 0.00 | 2.45 | 1.88 | 65 | 1013.7 |
| 20260903184545 | 89 | 229 | 0.0 | 4.0 | 0.00 | 2.45 | 1.88 | 66 | 1013.9 |
| 20260903183931 | 89 | 96 | 1.0 | 4.0 | 0.00 | 2.45 | 1.88 | 66 | 1013.9 |
| 20260903183502 | 90 | 105 | 1.0 | 4.0 | 0.00 | 2.45 | 1.88 | 64 | 1014.0 |
| 20260903182450 | 90 | 269 | 1.0 | 2.0 | 0.00 | 2.45 | 1.88 | 65 | 1014.3 |
| 20260903182003 | 90 | 154 | 1.0 | 3.0 | 0.00 | 2.45 | 1.88 | 66 | 1014.3 |
| 20260903181517 | 89 | 47 | 0.0 | 3.0 | 0.00 | 2.45 | 1.88 | 69 | 1014.4 |
| 20260903180500 | 89 | 171 | 0.0 | 3.0 | 0.00 | 2.45 | 1.88 | 68 | 1014.6 |
| 20260903175452 | 89 | 287 | 0.0 | 3.0 | 0.00 | 2.45 | 1.88 | 68 | 1014.7 |
| 20260903174521 | 89 | 63 | 1.0 | 8.0 | 0.00 | 2.45 | 1.88 | 66 | 1014.9 |
| 20260903173937 | 89 | 118 | 1.0 | 3.0 | 0.00 | 2.45 | 1.88 | 68 | 1015.0 |
| 20260903172957 | 89 | 73 | 2.0 | 4.0 | 0.00 | 2.45 | 1.88 | 68 | 1015.0 |
| 20260903172503 | 88 | 74 | 1.0 | 3.0 | 0.00 | 2.45 | 1.88 | 68 | 1015.1 |
| 20260903171448 | 88 | 103 | 1.0 | 5.0 | 0.00 | 2.45 | 1.88 | 70 | 1015.1 |
| 20260903170442 | 88 | 78 | 1.0 | 6.0 | 0.00 | 2.45 | 1.88 | 68 | 1015.1 |
| 20260903170023 | 88 | 88 | 0.0 | 5.0 | 0.00 | 2.45 | 1.88 | 72 | 1015.1 |
| 20260903165437 | 87 | 85 | 0.0 | 5.0 | 0.00 | 2.45 | 1.88 | 70 | 1015.1 |
| 20260903165013 | 88 | 126 | 1.0 | 3.0 | 0.00 | 2.45 | 1.88 | 68 | 1015.2 |
| 20260903164439 | 88 | 317 | 0.0 | 2.0 | 0.00 | 2.45 | 1.88 | 72 | 1015.1 |
| 20260903164004 | 88 | 190 | 0.0 | 2.0 | 0.00 | 2.45 | 1.88 | 71 | 1015.2 |
| 20260903162953 | 87 | 132 | 0.0 | 2.0 | 0.00 | 2.45 | 1.88 | 73 | 1015.1 |
| 20260903162509 | 86 | 343 | 0.0 | 3.0 | 0.00 | 2.45 | 1.88 | 73 | 1015.0 |
| 20260903161454 | 86 | 172 | 1.0 | 3.0 | 0.00 | 2.45 | 1.88 | 73 | 1015.1 |
| 20260903160444 | 85 | 251 | 1.0 | 3.0 | 0.00 | 2.45 | 1.88 | 76 | 1015.2 |
| 20260903155454 | 84 | 297 | 0.0 | 2.0 | 0.00 | 2.45 | 1.88 | 79 | 1015.1 |
| 20260903154500 | 83 | 90 | 0.0 | 3.0 | 0.00 | 2.45 | 1.88 | 81 | 1015.0 |
| 20260903153437 | 83 | 146 | 1.0 | 5.0 | 0.00 | 2.45 | 1.88 | 81 | 1014.9 |
| 20260903153008 | 83 | 108 | 0.0 | 2.0 | 0.00 | 2.45 | 1.88 | 83 | 1014.8 |
| 20260903151951 | 81 | 188 | 0.0 | 1.0 | 0.00 | 2.45 | 1.88 | 88 | 1014.8 |
| 20260903150948 | 80 | 83 | 0.0 | 4.0 | 0.00 | 2.45 | 1.88 | 91 | 1014.7 |
| 20260903145933 | 78 | 329 | 0.0 | 1.0 | 0.00 | 2.45 | 1.88 | 93 | 1014.6 |
| 20260903145458 | 78 | 331 | 0.0 | 1.0 | 0.00 | 2.45 | 1.88 | 93 | 1014.6 |
| 20260903144500 | 77 | 109 | 0.0 | 1.0 | 0.00 | 2.45 | 1.88 | 95 | 1014.6 |
| 20260903143440 | 76 | 81 | 0.0 | 3.0 | 0.00 | 2.45 | 1.88 | 96 | 1014.8 |
| 20260903142501 | 76 | 229 | 0.0 | 0.0 | 0.00 | 2.45 | 1.88 | 96 | 1014.8 |
| 20260903141440 | 75 | 153 | 0.0 | 0.0 | 0.00 | 2.45 | 1.88 | 97 | 1014.8 |
| 20260903141010 | 75 | 278 | 0.0 | 1.0 | 0.00 | 2.45 | 1.88 | 96 | 1014.9 |
| 20260903135943 | 75 | 248 | 0.0 | 2.0 | 0.00 | 2.45 | 1.88 | 96 | 1014.9 |
| 20260903135516 | 75 | 269 | 0.0 | 2.0 | 0.00 | 2.45 | 1.88 | 96 | 1014.9 |
| 20260903134511 | 75 | 184 | 0.0 | 0.0 | 0.00 | 2.45 | 1.88 | 97 | 1014.8 |
| 20260903133450 | 75 | 126 | 0.0 | 0.0 | 0.00 | 2.45 | 1.88 | 97 | 1014.7 |
| 20260903133023 | 75 | 126 | 0.0 | 0.0 | 0.00 | 2.45 | 1.88 | 97 | 1014.6 |
| 20260903132441 | 74 | 219 | 0.0 | 0.0 | 0.00 | 2.45 | 1.88 | 97 | 1014.7 |
| 20260903132010 | 74 | 165 | 0.0 | 1.0 | 0.00 | 2.45 | 1.88 | 97 | 1014.8 |
| 20260903131531 | 74 | 165 | 0.0 | 1.0 | 0.00 | 2.45 | 1.88 | 97 | 1014.7 |
| 20260903130509 | 74 | 284 | 0.0 | 1.0 | 0.00 | 2.45 | 1.88 | 97 | 1015.0 |
| 20260903125504 | 74 | 284 | 0.0 | 1.0 | 0.00 | 2.45 | 1.88 | 97 | 1015.1 |
| 20260903125038 | 73 | 284 | 0.0 | 1.0 | 0.00 | 2.45 | 1.88 | 97 | 1015.0 |
| 20260903124454 | 73 | 290 | 0.0 | 0.0 | 0.00 | 2.45 | 1.88 | 97 | 1014.9 |
| 20260903123437 | 73 | 290 | 0.0 | 1.0 | 0.00 | 2.45 | 1.88 | 97 | 1014.7 |
| 20260903122959 | 73 | 290 | 0.0 | 0.0 | 0.00 | 2.45 | 1.88 | 97 | 1014.7 |
| 20260903122511 | 73 | 290 | 0.0 | 1.0 | 0.00 | 2.45 | 1.88 | 97 | 1014.6 |
| 20260903121435 | 72 | 290 | 0.0 | 1.0 | 0.00 | 2.45 | 1.88 | 97 | 1014.6 |
| 20260903120945 | 72 | 86 | 0.0 | 1.0 | 0.00 | 2.45 | 1.88 | 97 | 1014.5 |
| 20260903115928 | 72 | 86 | 0.0 | 2.0 | 0.00 | 2.45 | 1.88 | 96 | 1014.5 |
| 20260903115501 | 72 | 89 | 0.0 | 3.0 | 0.00 | 2.45 | 1.88 | 96 | 1014.5 |
| 20260903114453 | 73 | 96 | 0.0 | 1.0 | 0.00 | 2.45 | 1.88 | 96 | 1014.5 |
| 20260903114001 | 73 | 97 | 0.0 | 1.0 | 0.00 | 2.45 | 1.88 | 96 | 1014.5 |
| 20260903112953 | 73 | 14 | 0.0 | 1.0 | 0.00 | 2.45 | 1.88 | 96 | 1014.5 |
| 20260903112522 | 73 | 92 | 0.0 | 2.0 | 0.00 | 2.45 | 1.88 | 96 | 1014.3 |
| 20260903111932 | 73 | 86 | 0.0 | 2.0 | 0.00 | 2.45 | 1.88 | 96 | 1014.4 |
| 20260903111446 | 73 | 98 | 0.0 | 1.0 | 0.00 | 2.45 | 1.88 | 97 | 1014.4 |
| 20260903111015 | 73 | 323 | 0.0 | 1.0 | 0.00 | 2.45 | 1.88 | 97 | 1014.3 |
| 20260903110440 | 73 | 88 | 0.0 | 3.0 | 0.00 | 2.45 | 1.88 | 97 | 1014.3 |
| 20260903110010 | 73 | 88 | 0.0 | 3.0 | 0.00 | 2.45 | 1.88 | 97 | 1014.2 |
| 20260903105527 | 73 | 240 | 0.0 | 0.0 | 0.00 | 2.45 | 1.88 | 97 | 1013.9 |
| 20260903104938 | 73 | 240 | 0.0 | 0.0 | 0.00 | 2.45 | 1.88 | 97 | 1013.7 |
| 20260903104514 | 73 | 240 | 0.0 | 0.0 | 0.01 | 2.45 | 1.88 | 97 | 1013.6 |
| 20260903103937 | 73 | 240 | 0.0 | 0.0 | 0.01 | 2.45 | 1.88 | 97 | 1013.5 |
| 20260903103506 | 73 | 240 | 0.0 | 1.0 | 0.01 | 2.45 | 1.88 | 97 | 1013.4 |
| 20260903103035 | 73 | 291 | 0.0 | 1.0 | 0.01 | 2.45 | 1.88 | 97 | 1013.6 |
| 20260903102429 | 73 | 294 | 0.0 | 1.0 | 0.04 | 2.45 | 1.88 | 96 | 1013.7 |
| 20260903102004 | 73 | 348 | 0.0 | 2.0 | 0.07 | 2.45 | 1.88 | 96 | 1013.8 |
| 20260903101433 | 73 | 16 | 0.0 | 2.0 | 0.10 | 2.45 | 1.88 | 96 | 1013.8 |
| 20260903101015 | 74 | 96 | 0.0 | 2.0 | 0.14 | 2.45 | 1.88 | 96 | 1013.8 |
| 20260903095929 | 74 | 98 | 0.0 | 1.0 | 0.33 | 2.45 | 1.88 | 96 | 1013.8 |
| 20260903095449 | 74 | 88 | 0.0 | 0.0 | 0.46 | 2.45 | 1.88 | 97 | 1013.9 |
| 20260903095022 | 74 | 126 | 0.0 | 1.0 | 0.56 | 2.45 | 1.88 | 97 | 1013.9 |
| 20260903093948 | 74 | 141 | 0.0 | 1.0 | 0.63 | 2.44 | 1.87 | 97 | 1013.9 |
| 20260903093524 | 74 | 140 | 0.0 | 1.0 | 0.65 | 2.44 | 1.87 | 97 | 1013.9 |
| 20260903092931 | 74 | 88 | 0.0 | 0.0 | 0.65 | 2.43 | 1.86 | 97 | 1014.0 |
| 20260903092501 | 74 | 88 | 0.0 | 1.0 | 0.64 | 2.41 | 1.84 | 97 | 1013.9 |
| 20260903091448 | 74 | 88 | 0.0 | 2.0 | 0.62 | 2.35 | 1.78 | 96 | 1013.8 |
| 20260903090509 | 74 | 119 | 0.0 | 4.0 | 0.58 | 2.28 | 1.71 | 96 | 1014.0 |
| 20260903085930 | 73 | 143 | 0.0 | 4.0 | 0.43 | 2.12 | 1.55 | 96 | 1014.1 |
| 20260903085507 | 73 | 103 | 0.0 | 4.0 | 0.28 | 1.97 | 1.40 | 96 | 1014.2 |
| 20260903084521 | 74 | 83 | 2.0 | 5.0 | 0.16 | 1.84 | 1.27 | 96 | 1014.0 |
| 20260903083442 | 74 | 76 | 0.0 | 1.0 | 0.11 | 1.78 | 1.21 | 96 | 1013.8 |
| 20260903082933 | 74 | 72 | 0.0 | 2.0 | 0.12 | 1.78 | 1.21 | 96 | 1013.7 |
| 20260903082514 | 74 | 350 | 0.0 | 2.0 | 0.11 | 1.77 | 1.20 | 96 | 1013.7 |
| 20260903081926 | 73 | 247 | 0.0 | 1.0 | 0.10 | 1.74 | 1.17 | 96 | 1013.8 |
| 20260903080952 | 73 | 35 | 0.0 | 1.0 | 0.12 | 1.72 | 1.15 | 96 | 1013.8 |
| 20260903080447 | 73 | 288 | 0.0 | 2.0 | 0.15 | 1.70 | 1.13 | 96 | 1013.8 |
| 20260903080016 | 74 | 266 | 0.0 | 2.0 | 0.21 | 1.69 | 1.12 | 96 | 1013.8 |
| 20260903075448 | 74 | 92 | 0.0 | 0.0 | 0.30 | 1.69 | 1.12 | 96 | 1013.8 |
| 20260903074954 | 74 | 94 | 0.0 | 0.0 | 0.30 | 1.68 | 1.11 | 96 | 1013.9 |
| 20260903074533 | 74 | 311 | 0.0 | 2.0 | 0.32 | 1.68 | 1.11 | 96 | 1013.7 |
| 20260903073929 | 74 | 293 | 1.0 | 4.0 | 0.37 | 1.67 | 1.11 | 96 | 1013.8 |
| 20260903073501 | 74 | 255 | 1.0 | 4.0 | 0.43 | 1.67 | 1.10 | 95 | 1013.8 |
| 20260903072446 | 74 | 255 | 1.0 | 4.0 | 0.77 | 1.66 | 1.09 | 95 | 1013.8 |
| 20260903071502 | 74 | 293 | 1.0 | 7.0 | 0.86 | 1.62 | 1.05 | 95 | 1013.9 |
| 20260903071006 | 75 | 175 | 1.0 | 7.0 | 0.90 | 1.59 | 1.02 | 95 | 1013.9 |
| 20260903065937 | 75 | 270 | 0.0 | 5.0 | 0.85 | 1.46 | 0.89 | 96 | 1014.0 |
| 20260903065454 | 75 | 338 | 2.0 | 5.0 | 0.80 | 1.39 | 0.82 | 96 | 1014.1 |
| 20260903064938 | 75 | 221 | 0.0 | 2.0 | 0.80 | 1.38 | 0.81 | 96 | 1014.0 |
| 20260903064458 | 75 | 252 | 0.0 | 2.0 | 0.77 | 1.35 | 0.78 | 96 | 1013.9 |
| 20260903063946 | 75 | 243 | 0.0 | 2.0 | 0.73 | 1.30 | 0.73 | 96 | 1013.9 |
| 20260903063431 | 75 | 282 | 0.0 | 2.0 | 0.62 | 1.19 | 0.62 | 95 | 1013.8 |
| 20260903062938 | 76 | 185 | 1.0 | 2.0 | 0.42 | 0.99 | 0.42 | 96 | 1014.0 |
| 20260903062436 | 76 | 271 | 0.0 | 3.0 | 0.32 | 0.89 | 0.32 | 96 | 1013.9 |
| 20260903061936 | 76 | 123 | 0.0 | 1.0 | 0.24 | 0.81 | 0.24 | 96 | 1013.8 |
| 20260903061441 | 76 | 261 | 0.0 | 2.0 | 0.17 | 0.74 | 0.17 | 96 | 1013.8 |
| 20260903060951 | 76 | 284 | 0.0 | 2.0 | 0.11 | 0.68 | 0.11 | 96 | 1013.8 |
| 20260903060434 | 76 | 222 | 0.0 | 4.0 | 0.07 | 0.64 | 0.07 | 95 | 1013.8 |
| 20260903060014 | 76 | 283 | 1.0 | 4.0 | 0.05 | 0.62 | 0.05 | 95 | 1013.8 |
| 20260903055447 | 76 | 277 | 1.0 | 4.0 | 0.02 | 0.59 | 0.02 | 95 | 1013.7 |
| 20260903054943 | 76 | 257 | 0.0 | 4.0 | 0.02 | 0.58 | 0.01 | 95 | 1013.7 |
| 20260903054430 | 76 | 277 | 1.0 | 4.0 | 0.02 | 0.58 | 0.01 | 95 | 1013.5 |
| 20260903053952 | 76 | 282 | 2.0 | 3.0 | 0.01 | 0.57 | 0.00 | 95 | 1013.5 |
| 20260903053454 | 76 | 267 | 1.0 | 6.0 | 0.01 | 0.57 | 0.00 | 95 | 1013.5 |
| 20260903052955 | 76 | 281 | 2.0 | 6.0 | 0.01 | 0.57 | 0.00 | 95 | 1013.5 |
| 20260903052446 | 76 | 292 | 1.0 | 3.0 | 0.01 | 0.57 | 0.00 | 95 | 1013.4 |
| 20260903051938 | 76 | 277 | 1.0 | 3.0 | 0.01 | 0.57 | 0.00 | 95 | 1013.3 |
| 20260903051438 | 76 | 270 | 1.0 | 6.0 | 0.01 | 0.57 | 0.57 | 95 | 1013.2 |
| 20260903050957 | 76 | 246 | 1.0 | 6.0 | 0.02 | 0.57 | 0.57 | 95 | 1013.2 |
| 20260903050457 | 76 | 265 | 1.0 | 4.0 | 0.02 | 0.57 | 0.57 | 95 | 1013.3 |
| 20260903045440 | 76 | 286 | 1.0 | 4.0 | 0.03 | 0.57 | 0.57 | 95 | 1013.3 |
| 20260903044447 | 76 | 256 | 1.0 | 5.0 | 0.03 | 0.56 | 0.56 | 95 | 1013.4 |
| 20260903044018 | 76 | 277 | 1.0 | 5.0 | 0.03 | 0.56 | 0.56 | 95 | 1013.5 |
| 20260903043532 | 76 | 263 | 1.0 | 5.0 | 0.03 | 0.56 | 0.56 | 95 | 1013.6 |
| 20260903042933 | 76 | 283 | 1.0 | 3.0 | 0.03 | 0.56 | 0.56 | 95 | 1013.5 |
| 20260903042454 | 76 | 272 | 1.0 | 3.0 | 0.04 | 0.56 | 0.56 | 95 | 1013.6 |
| 20260903042016 | 76 | 273 | 0.0 | 3.0 | 0.06 | 0.56 | 0.56 | 95 | 1013.6 |
| 20260903041544 | 76 | 281 | 1.0 | 4.0 | 0.08 | 0.56 | 0.56 | 95 | 1013.4 |
| 20260903040934 | 76 | 281 | 2.0 | 5.0 | 0.10 | 0.55 | 0.55 | 95 | 1013.4 |
| 20260903040506 | 76 | 299 | 0.0 | 4.0 | 0.12 | 0.55 | 0.55 | 95 | 1013.5 |
| 20260903035450 | 76 | 288 | 2.0 | 7.0 | 0.17 | 0.54 | 0.54 | 95 | 1013.2 |
| 20260903034959 | 76 | 275 | 1.0 | 6.0 | 0.19 | 0.54 | 0.54 | 95 | 1013.1 |
| 20260903033955 | 76 | 273 | 1.0 | 4.0 | 0.23 | 0.53 | 0.53 | 95 | 1013.1 |
| 20260903032948 | 76 | 299 | 2.0 | 4.0 | 0.29 | 0.53 | 0.53 | 95 | 1013.0 |
| 20260903032523 | 76 | 270 | 2.0 | 7.0 | 0.30 | 0.52 | 0.52 | 95 | 1012.9 |
| 20260903031943 | 76 | 281 | 2.0 | 5.0 | 0.31 | 0.50 | 0.50 | 95 | 1013.1 |
| 20260903031522 | 76 | 294 | 2.0 | 5.0 | 0.30 | 0.48 | 0.48 | 95 | 1013.2 |
| 20260903030936 | 76 | 260 | 3.0 | 4.0 | 0.30 | 0.45 | 0.45 | 95 | 1013.1 |
| 20260903030510 | 76 | 283 | 1.0 | 4.0 | 0.29 | 0.43 | 0.43 | 95 | 1013.2 |
| 20260903025452 | 76 | 282 | 3.0 | 5.0 | 0.27 | 0.37 | 0.37 | 94 | 1013.1 |
| 20260903024435 | 76 | 258 | 2.0 | 5.0 | 0.26 | 0.32 | 0.32 | 94 | 1013.1 |
| 20260903024001 | 76 | 295 | 2.0 | 4.0 | 0.23 | 0.29 | 0.29 | 94 | 1013.1 |
| 20260903023430 | 76 | 284 | 2.0 | 9.0 | 0.21 | 0.26 | 0.26 | 94 | 1012.9 |
| 20260903023003 | 76 | 271 | 2.0 | 9.0 | 0.20 | 0.24 | 0.24 | 94 | 1012.9 |
| 20260903022009 | 76 | 281 | 2.0 | 6.0 | 0.16 | 0.19 | 0.19 | 93 | 1012.8 |
| 20260903020952 | 76 | 266 | 2.0 | 3.0 | 0.15 | 0.15 | 0.15 | 93 | 1012.7 |
| 20260903015947 | 76 | 290 | 1.0 | 4.0 | 0.12 | 0.12 | 0.12 | 92 | 1012.5 |
| 20260903014936 | 76 | 286 | 2.0 | 4.0 | 0.06 | 0.06 | 0.06 | 92 | 1012.4 |
| 20260903014510 | 76 | 273 | 2.0 | 4.0 | 0.06 | 0.06 | 0.06 | 91 | 1012.4 |
| 20260903014024 | 76 | 291 | 2.0 | 4.0 | 0.06 | 0.06 | 0.06 | 91 | 1012.2 |
| 20260903013438 | 77 | 278 | 2.0 | 4.0 | 0.05 | 0.05 | 0.05 | 90 | 1012.3 |
| 20260903012438 | 78 | 298 | 1.0 | 6.0 | 0.04 | 0.04 | 0.04 | 88 | 1012.2 |
| 20260903012012 | 79 | 263 | 2.0 | 7.0 | 0.02 | 0.02 | 0.02 | 85 | 1012.3 |
| 20260903010955 | 79 | 275 | 3.0 | 6.0 | 0.00 | 0.00 | 0.00 | 82 | 1012.1 |
| 20260903005943 | 80 | 249 | 3.0 | 5.0 | 0.00 | 0.00 | 0.00 | 80 | 1012.0 |
| 20260903005450 | 80 | 277 | 2.0 | 5.0 | 0.00 | 0.00 | 0.00 | 79 | 1011.9 |
| 20260903004439 | 80 | 297 | 3.0 | 7.0 | 0.00 | 0.00 | 0.00 | 78 | 1011.9 |
| 20260903003432 | 81 | 287 | 3.0 | 5.0 | 0.00 | 0.00 | 0.00 | 76 | 1012.0 |
| 20260903002958 | 81 | 263 | 2.0 | 6.0 | 0.00 | 0.00 | 0.00 | 76 | 1012.0 |
| 20260903001945 | 82 | 290 | 3.0 | 8.0 | 0.00 | 0.00 | 0.00 | 75 | 1012.0 |
| 20260903000950 | 82 | 283 | 3.0 | 6.0 | 0.00 | 0.00 | 0.00 | 74 | 1012.1 |
| 20260903000520 | 82 | 268 | 2.0 | 6.0 | 0.00 | 0.00 | 0.00 | 74 | 1012.1 |
| 20260902235944 | 82 | 309 | 4.0 | 6.0 | 0.00 | 0.00 | 0.00 | 73 | 1012.1 |
| 20260902234942 | 82 | 262 | 3.0 | 5.0 | 0.00 | 0.00 | 0.00 | 73 | 1012.2 |
| 20260902234514 | 83 | 278 | 1.0 | 7.0 | 0.00 | 0.00 | 0.00 | 73 | 1012.2 |
| 20260902233953 | 83 | 286 | 2.0 | 8.0 | 0.00 | 0.00 | 0.00 | 72 | 1012.3 |
| 20260902233504 | 83 | 280 | 3.0 | 7.0 | 0.00 | 0.00 | 0.00 | 71 | 1012.2 |
| 20260902232501 | 83 | 281 | 3.0 | 10.0 | 0.00 | 0.00 | 0.00 | 71 | 1012.1 |
| 20260902231501 | 84 | 261 | 2.0 | 7.0 | 0.00 | 0.00 | 0.00 | 71 | 1012.0 |
| 20260902230501 | 84 | 284 | 3.0 | 9.0 | 0.00 | 0.00 | 0.00 | 70 | 1012.0 |
| 20260902225509 | 85 | 281 | 5.0 | 14.0 | 0.00 | 0.00 | 0.00 | 69 | 1011.8 |
| 20260902224933 | 85 | 267 | 5.0 | 10.0 | 0.00 | 0.00 | 0.00 | 68 | 1011.8 |
| 20260902224517 | 85 | 257 | 5.0 | 10.0 | 0.00 | 0.00 | 0.00 | 67 | 1011.8 |
| 20260902223938 | 86 | 284 | 2.0 | 7.0 | 0.00 | 0.00 | 0.00 | 67 | 1011.7 |
| 20260902222952 | 87 | 286 | 3.0 | 8.0 | 0.00 | 0.00 | 0.00 | 63 | 1011.6 |
| 20260902221955 | 88 | 279 | 4.0 | 6.0 | 0.00 | 0.00 | 0.00 | 62 | 1011.7 |
| 20260902220954 | 87 | 295 | 3.0 | 7.0 | 0.00 | 0.00 | 0.00 | 63 | 1011.8 |
| 20260902215958 | 88 | 277 | 3.0 | 8.0 | 0.00 | 0.00 | 0.00 | 62 | 1011.8 |
| 20260902215431 | 88 | 286 | 4.0 | 7.0 | 0.00 | 0.00 | 0.00 | 62 | 1011.8 |
| 20260902215007 | 88 | 283 | 2.0 | 7.0 | 0.00 | 0.00 | 0.00 | 63 | 1011.8 |
| 20260902213945 | 89 | 296 | 3.0 | 6.0 | 0.00 | 0.00 | 0.00 | 63 | 1011.8 |
| 20260902213523 | 88 | 244 | 3.0 | 5.0 | 0.00 | 0.00 | 0.00 | 64 | 1011.8 |
| 20260902212936 | 89 | 257 | 3.0 | 6.0 | 0.00 | 0.00 | 0.00 | 63 | 1011.8 |
| 20260902211950 | 90 | 284 | 2.0 | 10.0 | 0.00 | 0.00 | 0.00 | 61 | 1011.8 |
| 20260902210945 | 90 | 271 | 2.0 | 7.0 | 0.00 | 0.00 | 0.00 | 61 | 1011.9 |
| 20260902205943 | 90 | 295 | 2.0 | 9.0 | 0.00 | 0.00 | 0.00 | 61 | 1011.9 |
| 20260902205504 | 90 | 292 | 4.0 | 9.0 | 0.00 | 0.00 | 0.00 | 60 | 1011.9 |
| 20260902204927 | 89 | 275 | 3.0 | 6.0 | 0.00 | 0.00 | 0.00 | 61 | 1012.0 |
| 20260902204452 | 90 | 274 | 3.0 | 6.0 | 0.00 | 0.00 | 0.00 | 61 | 1012.1 |
| 20260902203443 | 90 | 320 | 3.0 | 7.0 | 0.00 | 0.00 | 0.00 | 61 | 1012.1 |
| 20260902203018 | 89 | 263 | 2.0 | 7.0 | 0.00 | 0.00 | 0.00 | 62 | 1012.3 |
| 20260902202433 | 89 | 285 | 4.0 | 7.0 | 0.00 | 0.00 | 0.00 | 63 | 1012.3 |
| 20260902201955 | 88 | 262 | 3.0 | 8.0 | 0.00 | 0.00 | 0.00 | 64 | 1012.3 |
| 20260902200947 | 88 | 265 | 5.0 | 7.0 | 0.00 | 0.00 | 0.00 | 63 | 1012.4 |
| 20260902200522 | 89 | 263 | 2.0 | 8.0 | 0.00 | 0.00 | 0.00 | 63 | 1012.3 |
| 20260902195942 | 88 | 248 | 4.0 | 9.0 | 0.00 | 0.00 | 0.00 | 64 | 1012.3 |